{"data":{"norad_id":58264,"epoch":"2026-09-21T22:08:36.914208Z","epoch_age_seconds":116298,"freshness":"FRESH","line1":"1 58264U 23174J   26264.92264947  .00002995  00000+0  11199-3 0  9993","line2":"2 58264  97.3836 340.8880 0009136 218.0593 142.0002 15.28085655159527","mean_motion":15.28085655,"eccentricity":0.0009136,"inclination_deg":97.3836,"raan_deg":340.888,"arg_perigee_deg":218.0593,"mean_anomaly_deg":142.0002,"bstar":0.00011199,"rev_number":15952,"period_min":94.235555139741,"perigee_km":475.2684038975,"apogee_km":487.80239730788,"semimajor_km":6859.6724006027,"source":"CELESTRAK","updated_at":"2026-09-22T09:00:26.575818Z"}}